{"data":{"norad_id":58532,"intl_designator":"2023-192B","name":"STARLINK-31035","alt_names":[],"object_type":"PAYLOAD","status":"ACTIVE","operator":null,"country":"US","launch_date":"2023-12-08","launch_site_code":"AFWTR","launch_vehicle":null,"mission":null,"orbit_class":"UNKNOWN","rcs_meters":null,"size_class":null,"mass_kg":null,"dimensions":null,"purposes":["comms"],"wikipedia_slug":null,"has_3d_model":false,"image_url":null,"decayed_at":null,"tle_current":{"epoch":"2026-09-19T11:00:32.969088Z","epoch_age_seconds":236786,"freshness":"STALE","line1":"1 58532U 23192B   26262.45871492  .00003136  00000+0  10388-3 0  9993","line2":"2 58532  53.1570 226.2580 0000819  96.8639 263.2457 15.34401772155880","mean_motion":15.34401772,"eccentricity":8.19e-5,"inclination_deg":53.157,"raan_deg":226.258,"arg_perigee_deg":96.8639,"mean_anomaly_deg":263.2457,"bstar":0.00010388,"rev_number":15588,"period_min":93.847649701489,"perigee_km":462.13770907042,"apogee_km":463.25823783907,"semimajor_km":6840.8349734547,"source":"CELESTRAK","updated_at":"2026-09-21T09:00:33.911771Z"}}}